Flag for India Weather past 2 weeks in Nagercoil, Tamil Nadu, India

Now
75 °F

Thunderstorms. Overcast.


Feels Like: 73 °F
Forecast: 76 / 88 °F
Wind: 3 mph from North

Location: Thiruvananthapuram

Current Time: Apr 22, 2015 at 12:37:52 AM

Latest Report: Apr 21, 2015 at 10:10 PM


Visibility: 2 mi

Pressure: 29.86 "Hg

Humidity: 100%

Dew point: 75 °F

Location of NagercoilLocation

Historic Weather in Nagercoil — Graph

°F

Nagercoil temperature yesterday

Maximum temperature yesterday: 88 °F (at 11:40 AM)
Minimum temperature yesterday: 75 °F (at 9:10 PM)
Average temperature yesterday: 80 °F

Past Weeks' High & Low Weather Summary

 TemperatureHumidityPressure
High91 °F (Apr 7, 1:40 PM)100% (Apr 21, 9:10 PM)29.95 "Hg (Apr 21, 9:10 PM)
Low75 °F (Apr 21, 9:10 PM)21% (Apr 16, 2:40 AM)29.68 "Hg (Apr 7, 3:40 PM)
Average83 °F76%29.82 "Hg
* Reported Apr 6 9:40 PM — Apr 21 10:10 PM, Nagercoil, Weather by CustomWeather, © 2015

Note: Actual official high and low records may vary slightly from our data, if they occured in-between our weather recording intervals... More about our weather records

Advertising

Nagercoil weather history for previous 24 hours

 ConditionsComfort  
Time TempWeatherWind HumidityBarometerVisibility
10:10 PM
Tue, Apr 21
75 °FThunderstorms. Overcast.3 mph100%29.86 "Hg2 mi
9:10 PM75 °FThunderstorms. Mostly cloudy.5 mph100%29.86 "Hg1 mi
8:40 PM77 °FThunderstorms. Passing clouds.7 mph94%29.86 "Hg1 mi
8:10 PM77 °FThunderstorms. Mostly cloudy.6 mph94%29.83 "Hg1 mi
7:40 PM77 °FThunderstorms. Mostly cloudy.9 mph94%29.83 "Hg1 mi
7:10 PM77 °FThunderstorms. Mostly cloudy.9 mph94%29.86 "Hg1 mi
6:40 PM77 °FThunderstorms. More clouds than sun.9 mph94%29.86 "Hg1 mi
6:10 PM77 °FMore clouds than sun.9 mph94%29.83 "Hg1 mi
4:40 PM79 °FThunderstorms. More clouds than sun.3 mph89%29.74 "Hg1 mi
3:40 PM82 °FStrong thunderstorms. More clouds than sun.7 mph79%29.74 "Hg1 mi
2:40 PM86 °FThunderstorms. Broken clouds.7 mph70%29.74 "Hg2 mi
2:10 PM88 °FLight rain. Broken clouds.7 mph66%29.77 "Hg2 mi
1:40 PM88 °FBroken clouds.5 mph66%29.77 "Hg3 mi
1:10 PM88 °FBroken clouds.3 mph66%29.80 "Hg3 mi
12:40 PM88 °FBroken clouds.5 mph66%29.83 "Hg3 mi
12:10 PM88 °FMore clouds than sun.5 mph66%29.83 "Hg3 mi
11:40 AM88 °FBroken clouds.5 mph66%29.83 "Hg3 mi
11:10 AM86 °FBroken clouds.6 mph70%29.86 "Hg3 mi
10:10 AM84 °FBroken clouds.5 mph74%29.86 "Hg2 mi
9:40 AM82 °FBroken clouds.No wind79%29.86 "Hg2 mi
9:10 AM81 °FMore clouds than sun.No wind84%29.86 "Hg2 mi
8:40 AM81 °FMore clouds than sun.3 mph79%29.86 "Hg2 mi
8:10 AM81 °FMore clouds than sun.6 mph74%29.86 "Hg2 mi
6:40 AM77 °FThunderstorms. More clouds than sun.3 mph89%29.80 "Hg2 mi
6:10 AM77 °FThunderstorms. Mostly cloudy.3 mph89%29.80 "Hg2 mi
5:40 AM77 °FThunderstorms. Mostly cloudy.5 mph89%29.83 "Hg2 mi
5:10 AM77 °FThunderstorms. Mostly cloudy.5 mph94%29.80 "Hg2 mi
4:40 AM77 °FPartly cloudy.5 mph89%29.80 "Hg2 mi
4:10 AM79 °FPartly cloudy.5 mph84%29.80 "Hg2 mi
3:40 AM79 °FPartly cloudy.No wind84%29.77 "Hg2 mi
3:10 AM79 °FPartly cloudy.3 mph84%29.80 "Hg2 mi
2:40 AM79 °FPartly cloudy.5 mph84%29.80 "Hg2 mi
2:10 AM79 °FPartly cloudy.No wind84%29.80 "Hg2 mi
1:40 AM79 °FPartly cloudy.No wind84%29.80 "Hg2 mi
1:10 AM79 °FPartly cloudy.No wind84%29.80 "Hg2 mi
12:40 AM79 °FPartly cloudy.No wind84%29.83 "Hg2 mi
12:10 AM79 °FPartly cloudy.No wind89%29.83 "Hg2 mi
Weather by CustomWeather, © 2015

See weather overviewHow to use our weather pages